OBJECT H, 67255

Orbit data source: Space-Track

You're viewing an Uncataloged Satellite

Recently launched and/or uncataloged satellites may have evolving metadata. Metadata may include but not limited to: Owner, Maufacturer, Bus, Motor, and Mission.

OBJECT H, 67255 is a satellite in SSO that was launched on Sun, 28 Dec 2025 UTC via a SOYUZ-2-1B launch vehicle from the Vostochny Cosmodrome (VOSTO). Unknown objects in Earth's orbit typically refer to objects detected orbiting the Earth but have not yet been identified or cataloged. These objects could be anything from previously untracked satellites, spent rocket stages, debris from satellite collisions, or even natural meteoroids temporarily captured by Earth's gravity.

Loading next visibility...
Identifier
67255, 2025-313H
Orbit
SSO
Country
Flag of TBDTBD
Related business
Manufacturer
IEI
Mission
Operational Civil Technology
Bus & Motor
TOLOU, Unknown motor
Mass
150 kg wet, 150 kg dry
Launch date (UTC)
2025-12-28 (6 months ago)
Launch vehicle
SOYUZ-2-1B
Launch site
Vostochny Cosmodrome (VOSTO)
Object type
Unknown
Shape & HBR
Box, 0.5 m
Radar Cross Section
0.945 m², Medium (>0.1 m² and < 1m²)

Expand to show TLE details & history
Last TLE update: 10 hours ago

TLE from 10 hours ago
0 OBJECT H
1 67255U 25313H   26171.43143100  .00001062  00000-0  71232-4 0  9990
2 67255  97.2862 239.1784 0067565 324.2609  35.4106 15.07120419 26142
Epoch: 2026-06-20T10:21Z
TLE epoch observation values (Epoch: 2026-06-20T10:21:15.638Z)
Latitude
-0.00004°
Longitude
175.2171°
Altitude
510.056 km
Speed
7.63 km/s
True Right ascension
15h 56m 42s
True Declination
0° 00' 00"
Sunlit
Object was in full shadow at epoch
Visualization orbit readout
Latitude
Unknown
Longitude
Unknown
Altitude
Unknown
Speed
Unknown
Apparent Right ascension
Unknown
Apparent Declination
Unknown
Sunlit
N/A
Visualization observer readout
Local Sidereal Time
07:12:50
Azimuth
Unknown
Elevation
Unknown
Doppler factor
Unknown
Orbital elements
Apogee altitude
588.738 km
Perigee altitude
495.226 km
Semi-major axis
6,920.119 km
Eccentricity
0.00676
Inclination
97.2862°
RAAN
239.1784°
Arg. of periapsis
324.2609°
True anomaly
35.86232°
Mean anomaly
35.4106°
Eccentric anomaly
35.63615°
Mean motion
3.77027 °/min
Orbital period
95.48 mins
BSTAR
0.000071232
Loading maneuver chart data...
Computing Atmospheric mass density...
Loading historical data...
Loading historical data...
Loading historical data...
Loading historical data...
Loading historical data...
Loading historical data...
Loading historical data...

Documentation

Showing up to 5 results
|